TimeCDT,TemperatureF,Dew PointF,Humidity,Sea Level PressureIn,VisibilityMPH,Wind Direction,Wind SpeedMPH,Gust SpeedMPH,PrecipitationIn,Events,Conditions,WindDirDegrees,DateUTC
12:53 AM,50.0,48.0,93,30.24,10.0,Calm,Calm,-,N/A,,Clear,0,2013-09-06 05:53:00
1:53 AM,52.0,48.0,86,30.23,10.0,SW,3.5,-,N/A,,Clear,220,2013-09-06 06:53:00
2:53 AM,50.0,46.9,89,30.22,10.0,Calm,Calm,-,N/A,,Clear,0,2013-09-06 07:53:00
3:53 AM,48.0,46.0,93,30.21,10.0,Calm,Calm,-,N/A,,Clear,0,2013-09-06 08:53:00
4:53 AM,50.0,46.9,89,30.21,10.0,South,4.6,-,N/A,,Clear,180,2013-09-06 09:53:00
5:53 AM,48.0,46.0,93,30.21,10.0,SW,3.5,-,N/A,,Clear,230,2013-09-06 10:53:00
6:53 AM,46.9,46.0,97,30.22,10.0,Calm,Calm,-,N/A,,Clear,0,2013-09-06 11:53:00
7:53 AM,55.0,51.1,86,30.20,10.0,Calm,Calm,-,N/A,,Clear,0,2013-09-06 12:53:00
8:53 AM,60.1,54.0,80,30.19,10.0,SSW,4.6,-,N/A,,Clear,200,2013-09-06 13:53:00
9:53 AM,66.9,57.0,70,30.17,10.0,SSW,5.8,-,N/A,,Clear,210,2013-09-06 14:53:00
10:53 AM,72.0,57.0,59,30.15,10.0,SSW,9.2,-,N/A,,Clear,210,2013-09-06 15:53:00
11:35 AM,73.0,57.9,59,30.14,10.0,South,10.4,-,N/A,,Mostly Cloudy,190,2013-09-06 16:35:00
11:43 AM,73.9,57.9,57,30.14,10.0,South,6.9,-,N/A,,Scattered Clouds,190,2013-09-06 16:43:00
11:53 AM,75.0,59.0,57,30.14,10.0,South,8.1,-,N/A,,Partly Cloudy,170,2013-09-06 16:53:00
12:53 PM,77.0,63.0,62,30.08,10.0,South,12.7,20.7,N/A,,Clear,190,2013-09-06 17:53:00
1:53 PM,79.0,64.0,60,30.07,10.0,SSW,9.2,-,N/A,,Clear,210,2013-09-06 18:53:00
2:53 PM,80.1,64.9,60,30.05,10.0,SSW,6.9,-,N/A,,Clear,200,2013-09-06 19:53:00
3:53 PM,81.0,64.9,58,30.02,10.0,SSW,10.4,-,N/A,,Clear,210,2013-09-06 20:53:00
4:53 PM,81.0,64.9,58,30.00,10.0,SSW,8.1,-,N/A,,Clear,210,2013-09-06 21:53:00
5:53 PM,80.1,66.0,62,29.99,10.0,South,10.4,-,N/A,,Clear,170,2013-09-06 22:53:00
6:53 PM,77.0,66.0,69,29.98,10.0,South,8.1,-,N/A,,Partly Cloudy,170,2013-09-06 23:53:00
7:53 PM,73.0,66.0,79,29.96,10.0,South,9.2,-,N/A,,Clear,170,2013-09-07 00:53:00
8:53 PM,73.0,64.9,76,29.96,10.0,South,9.2,-,N/A,,Clear,180,2013-09-07 01:53:00
9:53 PM,72.0,64.9,78,29.95,10.0,South,6.9,-,N/A,,Partly Cloudy,180,2013-09-07 02:53:00
10:53 PM,71.1,66.0,84,29.94,10.0,South,5.8,-,N/A,,Mostly Cloudy,190,2013-09-07 03:53:00
11:53 PM,71.1,66.0,84,29.94,10.0,SSW,3.5,-,N/A,,Scattered Clouds,210,2013-09-07 04:53:00